Location: Bismarck
(46.7731°N, 100.8200°W)
Time: 00:15:21
(UTC-05:00)

Landsat 7 - Visible Passes

Search period start: 25 July 2014 00:00
Search period end: 04 August 2014 00:00
Orbit: 702 x 703 km, 98.2° (Epoch: 24 July)

Date Brightness Start Highest point End Pass type
(mag) Time Alt. Az. Time Alt. Az. Time Alt. Az.
25 Jul 4.9 00:00:00 37° W 23:59:59 37° W 00:04:24 10° NNW visible
25 Jul 3.9 23:01:40 20° SSE 23:04:55 69° ENE 23:09:39 10° N visible
26 Jul 6.1 00:40:33 10° WSW 00:43:09 15° W 00:45:54 10° NW visible
26 Jul 5.3 22:06:34 10° ESE 22:10:16 23° ENE 22:13:59 10° NNE visible
26 Jul 4.5 23:45:00 23° SSW 23:47:43 48° W 23:52:20 10° NNW visible
27 Jul 4.1 22:49:26 18° SE 22:52:45 53° ENE 22:57:23 10° N visible
28 Jul 5.9 00:28:20 14° SW 00:30:48 20° W 00:34:15 10° NW visible
28 Jul 5.5 21:54:58 10° ESE 21:58:12 19° ENE 22:01:26 10° NNE visible
28 Jul 4.1 23:32:46 25° S 23:35:29 63° WSW 23:40:13 10° NNW visible
29 Jul 4.5 22:37:13 16° SE 22:40:36 41° ENE 22:45:04 10° N visible
30 Jul 5.5 00:16:07 17° SW 00:18:29 25° W 00:22:25 10° NW visible
30 Jul 3.8 23:20:33 26° S 23:23:15 81° WSW 23:28:03 10° NNW visible
31 Jul 4.8 22:25:00 14° ESE 22:28:28 32° ENE 22:32:42 10° N visible
01 Aug 5.1 00:03:54 21° SW 00:06:11 32° W 00:10:28 10° NNW visible
01 Aug 3.8 23:08:21 26° SSE 23:11:04 78° ENE 23:15:50 10° N visible
02 Aug 6.2 00:47:14 10° WSW 00:49:23 13° W 00:51:39 10° WNW visible
02 Aug 5.1 22:12:48 12° ESE 22:16:22 26° ENE 22:20:17 10° N visible
02 Aug 4.7 23:51:41 26° SSW 23:53:54 42° W 23:58:26 10° NNW visible
03 Aug 4.0 22:56:09 24° SE 22:58:53 60° ENE 23:03:35 10° N visible
